�N����,����,�g�[���i�䏊�j���x,�g�[�����x,��g�[���i���ցj���x,����
 2002/12/01, 0:00,20.1,52,13.9,13
 2002/12/01, 0:15,19.8,52,13.9,13
 2002/12/01, 0:30,19.6,52,13.9,13
 2002/12/01, 0:45,19.4,52,13.8,13
 2002/12/01, 1:00,19.2,52,13.7,13
 2002/12/01, 1:15,19,52,13.7,13
 2002/12/01, 1:30,18.9,52,13.8,13.1
 2002/12/01, 1:45,18.7,52,13.7,13.1
 2002/12/01, 2:00,18.5,52,13.8,13.1
 2002/12/01, 2:15,18.3,53,13.7,13.2
 2002/12/01, 2:30,18.2,53,13.7,13.4
 2002/12/01, 2:45,18,53,13.6,13.4
 2002/12/01, 3:00,17.9,53,13.6,13.4
 2002/12/01, 3:15,17.9,53,13.6,13.4
 2002/12/01, 3:30,17.9,53,13.6,13.4
 2002/12/01, 3:45,17.6,53,13.6,13.4
 2002/12/01, 4:00,17.4,54,13.5,13.4
 2002/12/01, 4:15,17.5,53,13.5,13.4
 2002/12/01, 4:30,17.6,52,13.4,13.4
 2002/12/01, 4:45,17.3,53,13.4,13.4
 2002/12/01, 5:00,17.4,53,13.4,13.4
 2002/12/01, 5:15,17.1,53,13.2,13.4
 2002/12/01, 5:30,17.1,54,13.3,13.4
 2002/12/01, 5:45,16.9,54,13.3,13.4
 2002/12/01, 6:00,16.9,54,13.3,13.4
 2002/12/01, 6:15,16.8,54,13.2,13.4
 2002/12/01, 6:30,16.6,54,13.2,13.4
 2002/12/01, 6:45,16.7,54,13.3,13.4
 2002/12/01, 7:00,16.4,57,13.3,13.3
 2002/12/01, 7:15,16.6,62,13.3,13.5
 2002/12/01, 7:30,16.4,60,13.3,13.5
 2002/12/01, 7:45,16.4,59,13.2,13.5
 2002/12/01, 8:00,16.2,59,13.1,13.5
 2002/12/01, 8:15,16.5,60,13.2,13.6
 2002/12/01, 8:30,21.6,51,13.2,13.6
 2002/12/01, 8:45,22.1,54,13.5,13.6
 2002/12/01, 9:00,21.9,59,13.6,13.1
 2002/12/01, 9:15,22,59,13.7,13.2
 2002/12/01, 9:30,21.6,61,13.9,13.2
 2002/12/01, 9:45,22.6,57,14,13.4
 2002/12/01,10:00,22.4,58,14.2,13.4
 2002/12/01,10:15,22.5,57,14.2,13.3
 2002/12/01,10:30,22.2,51,14.3,13.4
 2002/12/01,10:45,21,59,14.4,13.1
 2002/12/01,11:00,21.7,59,14.4,13.3
 2002/12/01,11:15,22.9,57,14.3,13.2
 2002/12/01,11:30,22.7,60,14.2,13.3
 2002/12/01,11:45,22.9,60,14.3,13.3
 2002/12/01,12:00,21.9,64,14.3,13.1
 2002/12/01,12:15,21.4,65,14.3,13.1
 2002/12/01,12:30,21.2,64,14.3,13.2
 2002/12/01,12:45,20.9,62,14.4,13.4
 2002/12/01,13:00,20.5,62,14.5,13.2
 2002/12/01,13:15,20.4,60,14.4,13.3
 2002/12/01,13:30,20.1,60,14.4,13.1
 2002/12/01,13:45,20.6,61,14.4,13.2
 2002/12/01,14:00,20.4,63,14.5,13.2
 2002/12/01,14:15,20.2,63,14.4,13.2
 2002/12/01,14:30,20.2,62,14.5,13.3
 2002/12/01,14:45,20,62,14.4,13.5
 2002/12/01,15:00,19.9,62,14.5,13.6
 2002/12/01,15:15,20,63,14.6,13.2
 2002/12/01,15:30,19.7,63,14.7,13.3
 2002/12/01,15:45,19.7,63,14.5,13.3
 2002/12/01,16:00,19.3,58,15,13.4
 2002/12/01,16:15,19,57,14.9,13.2
 2002/12/01,16:30,19,58,14.8,13.3
 2002/12/01,16:45,18.9,57,14.9,13.3
 2002/12/01,17:00,18.3,57,14.9,13.4
 2002/12/01,17:15,18.3,58,14.6,13.4
 2002/12/01,17:30,18.1,59,14.7,13.5
 2002/12/01,17:45,17.9,59,14.6,13.5
 2002/12/01,18:00,17.8,59,14.5,13.5
 2002/12/01,18:15,17.5,60,14.5,13.5
 2002/12/01,18:30,20.7,52,14.5,13.5
 2002/12/01,18:45,21.3,59,14.4,13.1
 2002/12/01,19:00,21.5,61,14.2,13.2
 2002/12/01,19:15,22.2,55,14,13.5
 2002/12/01,19:30,21.6,57,13.9,13.5
 2002/12/01,19:45,22.1,53,13.8,13.5
 2002/12/01,20:00,22,57,13.8,13.5
 2002/12/01,20:15,23.5,96,13.7,13.3
 2002/12/01,20:30,22.6,85,13.7,13.4
 2002/12/01,20:45,22.6,72,13.7,13.4
 2002/12/01,21:00,22.5,68,13.7,13.2
 2002/12/01,21:15,21.8,65,13.7,13.1
 2002/12/01,21:30,22.9,59,13.6,13.2
 2002/12/01,21:45,22.8,65,13.5,13.2
 2002/12/01,22:00,21.9,66,13.5,13.2
 2002/12/01,22:15,21.3,56,13.5,13.2
 2002/12/01,22:30,21,54,13.5,13.3
 2002/12/01,22:45,20.5,53,13.6,13.3
 2002/12/01,23:00,20.1,52,13.8,13.3
 2002/12/01,23:15,19.9,52,13.6,13.3
 2002/12/01,23:30,19.5,53,13.5,13.1
 2002/12/01,23:45,19.2,53,13.4,13.2
 2002/12/02, 0:00,19,53,13.4,13.2
 2002/12/02, 0:15,18.6,55,13.4,13.1
 2002/12/02, 0:30,18.3,55,13.3,13.1
 2002/12/02, 0:45,18.1,54,13.3,13.1
 2002/12/02, 1:00,17.6,54,13.4,13
 2002/12/02, 1:15,17.4,55,13.4,13
 2002/12/02, 1:30,17.1,55,13.3,13.1
 2002/12/02, 1:45,17,55,13.3,13.1
 2002/12/02, 2:00,16.9,56,13.3,13.1
 2002/12/02, 2:15,16.6,57,13.3,13.1
 2002/12/02, 2:30,16.4,57,13.2,13.1
 2002/12/02, 2:45,16.2,57,13.1,13.1
 2002/12/02, 3:00,16,58,13.1,13.1
 2002/12/02, 3:15,16,57,13.1,13.1
 2002/12/02, 3:30,15.8,57,13,13.1
 2002/12/02, 3:45,15.6,58,12.9,13.1
 2002/12/02, 4:00,15.5,58,12.8,13.1
 2002/12/02, 4:15,15.3,58,12.8,13.1
 2002/12/02, 4:30,15.3,58,12.8,13.1
 2002/12/02, 4:45,15.1,59,12.7,13.1
 2002/12/02, 5:00,14.9,59,12.5,13.1
 2002/12/02, 5:15,15,60,12.6,13.1
 2002/12/02, 5:30,14.9,63,12.6,13
 2002/12/02, 5:45,14.8,61,12.6,13
 2002/12/02, 6:00,14.8,61,12.6,13
 2002/12/02, 6:15,18.9,51,12.5,13
 2002/12/02, 6:30,20.8,51,12.6,13
 2002/12/02, 6:45,21.8,50,12.6,13.7
 2002/12/02, 7:00,22,53,12.6,13.7
 2002/12/02, 7:15,21.7,56,11.7,13.6
 2002/12/02, 7:30,21.2,57,11.3,13.6
 2002/12/02, 7:45,21.3,57,11.4,13.7
 2002/12/02, 8:00,20.5,59,11.6,13.7
 2002/12/02, 8:15,19.6,60,11.8,13.4
 2002/12/02, 8:30,20.7,53,12,13.4
 2002/12/02, 8:45,18.9,50,12.1,13.5
 2002/12/02, 9:00,18.2,55,12.3,13.5
 2002/12/02, 9:15,17.6,60,12.3,13.5
 2002/12/02, 9:30,17.6,54,12.4,13.5
 2002/12/02, 9:45,17.3,53,12.7,13.4
 2002/12/02,10:00,17.3,52,12.9,13.2
 2002/12/02,10:15,16.6,50,12.9,13.2
 2002/12/02,10:30,16.9,51,12.8,13.3
 2002/12/02,10:45,16.8,51,13.1,13.4
 2002/12/02,11:00,16.6,52,13.2,13.3
 2002/12/02,11:15,16.7,52,13.3,13.3
 2002/12/02,11:30,16.5,52,13.3,13.3
 2002/12/02,11:45,16.5,51,13.4,13.1
 2002/12/02,12:00,17.7,51,13.6,13.1
 2002/12/02,12:15,21.4,44,13.6,13
 2002/12/02,12:30,21.8,39,13.6,13
 2002/12/02,12:45,22,39,13.8,13
 2002/12/02,13:00,20.3,41,13.8,13.1
 2002/12/02,13:15,19.3,44,14.2,13.1
 2002/12/02,13:30,18.6,47,14.2,13.1
 2002/12/02,13:45,18.2,48,14.2,13.1
 2002/12/02,14:00,21.6,43,14.2,13.1
 2002/12/02,14:15,19.4,47,14.3,13.2
 2002/12/02,14:30,19.9,42,14.3,13.2
 2002/12/02,14:45,19,44,14.2,13.6
 2002/12/02,15:00,18.7,46,14.3,13.4
 2002/12/02,15:15,18.8,44,14.4,13.4
 2002/12/02,15:30,18.9,44,14.3,13.4
 2002/12/02,15:45,18.6,45,14.4,13.4
 2002/12/02,16:00,18.5,46,14.2,13.2
 2002/12/02,16:15,18.5,48,14.2,13.2
 2002/12/02,16:30,18.1,49,14.2,13.2
 2002/12/02,16:45,18,49,14.2,13.1
 2002/12/02,17:00,17.8,50,14.1,13.1
 2002/12/02,17:15,17.9,51,13.8,13.1
 2002/12/02,17:30,21.1,51,13.7,13.2
 2002/12/02,17:45,21.6,53,13.5,13.2
 2002/12/02,18:00,21.7,53,13.4,13.3
 2002/12/02,18:15,21.6,53,13.4,13.7
 2002/12/02,18:30,21.9,53,13.4,13.7
 2002/12/02,18:45,21.9,54,13.4,13.7
 2002/12/02,19:00,21.9,54,13.2,13.4
 2002/12/02,19:15,22,54,13.1,13.4
 2002/12/02,19:30,21.9,56,13,13.4
 2002/12/02,19:45,22.2,58,12.9,13.4
 2002/12/02,20:00,22.2,58,12.8,13.4
 2002/12/02,20:15,21.7,58,12.8,13.2
 2002/12/02,20:30,22.3,53,12.8,13.2
 2002/12/02,20:45,21,55,12.6,13.2
 2002/12/02,21:00,20.4,54,12.6,13.2
 2002/12/02,21:15,20.1,54,12.4,13.3
 2002/12/02,21:30,19.9,53,12.3,13.3
 2002/12/02,21:45,19.4,54,12.2,13.3
 2002/12/02,22:00,19.3,53,12.1,13.3
 2002/12/02,22:15,19.1,53,11.9,13.3
 2002/12/02,22:30,20.1,51,12,13.3
 2002/12/02,22:45,22.4,48,11.9,13
 2002/12/02,23:00,20.3,51,11.8,13
 2002/12/02,23:15,22.6,48,11.8,13
 2002/12/02,23:30,22.9,49,11.7,13
 2002/12/02,23:45,22.8,50,11.6,13
 2002/12/03, 0:00,22.6,50,11.4,13.1
 2002/12/03, 0:15,21.2,51,11.3,13
 2002/12/03, 0:30,20.5,52,11.2,13.1
 2002/12/03, 0:45,20.1,51,11.1,13.1
 2002/12/03, 1:00,19.6,50,10.9,13.1
 2002/12/03, 1:15,19.3,50,10.8,13.1
 2002/12/03, 1:30,19,50,10.7,13.1
 2002/12/03, 1:45,18.6,49,10.6,13.1
 2002/12/03, 2:00,18.4,50,10.4,13.1
 2002/12/03, 2:15,18.1,50,10.4,13.1
 2002/12/03, 2:30,17.8,50,10.2,13.1
 2002/12/03, 2:45,17.6,50,10.2,13.1
 2002/12/03, 3:00,17.3,50,10.1,13.1
 2002/12/03, 3:15,17,48,10,13.1
 2002/12/03, 3:30,16.7,48,10,12.9
 2002/12/03, 3:45,16.3,49,10,12.9
 2002/12/03, 4:00,16.1,49,9.9,12.9
 2002/12/03, 4:15,15.8,51,9.8,12.9
 2002/12/03, 4:30,15.7,49,9.7,12.9
 2002/12/03, 4:45,15.6,49,9.5,12.9
 2002/12/03, 5:00,15.4,50,9.4,12.9
 2002/12/03, 5:15,15.4,49,9.4,12.9
 2002/12/03, 5:30,15.2,49,9.4,12.9
 2002/12/03, 5:45,15.1,50,9.4,12.9
 2002/12/03, 6:00,14.9,59,8.9,12.9
 2002/12/03, 6:15,14.8,57,8.5,12.9
 2002/12/03, 6:30,20.4,50,8.4,12.9
 2002/12/03, 6:45,21.8,45,8.5,13.3
 2002/12/03, 7:00,22.2,43,8.4,13.5
 2002/12/03, 7:15,22.7,40,8.2,13.2
 2002/12/03, 7:30,22.1,42,8.1,13.6
 2002/12/03, 7:45,20.7,46,8.3,13.6
 2002/12/03, 8:00,22,45,8.4,13.6
 2002/12/03, 8:15,22.5,45,8.6,13.3
 2002/12/03, 8:30,19.9,45,9.1,13.3
 2002/12/03, 8:45,18.5,39,9.8,13.5
 2002/12/03, 9:00,17.9,41,10.2,13.4
 2002/12/03, 9:15,16.8,48,10.5,13.4
 2002/12/03, 9:30,17.1,44,11.4,13.4
 2002/12/03, 9:45,17,44,12.6,13.4
 2002/12/03,10:00,16.8,44,13.1,13.4
 2002/12/03,10:15,16.8,43,13.1,12.9
 2002/12/03,10:30,16.5,44,13.2,12.9
 2002/12/03,10:45,16.5,44,13.3,12.9
 2002/12/03,11:00,16.2,44,13.3,12.9
 2002/12/03,11:15,16.1,45,13.4,12.8
 2002/12/03,11:30,16,46,13.4,12.8
 2002/12/03,11:45,16,47,13.6,12.8
 2002/12/03,12:00,16.1,48,13.5,12.9
 2002/12/03,12:15,16,49,13.7,12.9
 2002/12/03,12:30,16.2,56,13.7,12.9
 2002/12/03,12:45,16.1,53,13.9,12.9
 2002/12/03,13:00,16.1,53,13.8,12.9
 2002/12/03,13:15,16.2,52,13.9,13
 2002/12/03,13:30,16.1,52,14,13
 2002/12/03,13:45,16.1,52,14,13
 2002/12/03,14:00,16,52,14.1,13
 2002/12/03,14:15,16.1,52,14.1,13
 2002/12/03,14:30,16.1,52,14.2,13
 2002/12/03,14:45,15.9,52,14.2,12.8
 2002/12/03,15:00,16.1,52,14.2,12.8
 2002/12/03,15:15,16,53,14.2,13
 2002/12/03,15:30,16.2,52,14.2,13.1
 2002/12/03,15:45,16.3,52,14.2,13.1
 2002/12/03,16:00,16.1,53,14.2,13
 2002/12/03,16:15,16.2,53,14.2,13
 2002/12/03,16:30,16.2,53,14,13
 2002/12/03,16:45,16.4,53,14.1,13
 2002/12/03,17:00,16.3,54,13.9,13
 2002/12/03,17:15,16.9,58,13.7,13
 2002/12/03,17:30,20.8,50,13.6,13
 2002/12/03,17:45,21.5,49,13.4,13
 2002/12/03,18:00,21.1,51,13.4,13
 2002/12/03,18:15,21.3,53,13.3,13.2
 2002/12/03,18:30,21.5,53,13.3,13.2
 2002/12/03,18:45,21.7,53,13.3,13.3
 2002/12/03,19:00,21.6,57,13.2,13.3
 2002/12/03,19:15,21.7,55,13.2,13.3
 2002/12/03,19:30,20.9,66,13.2,13.4
 2002/12/03,19:45,22.1,55,13.2,13.3
 2002/12/03,20:00,22.8,53,13.3,13.3
 2002/12/03,20:15,22.1,55,13.2,13.4
 2002/12/03,20:30,21,56,13.3,13.4
 2002/12/03,20:45,20.7,56,13.3,13.4
 2002/12/03,21:00,20.4,58,13.3,13.4
 2002/12/03,21:15,20,55,13.2,13.4
 2002/12/03,21:30,20.6,52,13.3,13
 2002/12/03,21:45,20.7,52,13.2,13
 2002/12/03,22:00,20.2,56,13.2,13
 2002/12/03,22:15,20,55,13.2,13
 2002/12/03,22:30,19.9,54,13.3,13
 2002/12/03,22:45,19.7,54,13.3,13
 2002/12/03,23:00,19.3,54,13.2,12.9
 2002/12/03,23:15,19.3,54,13.2,13
 2002/12/03,23:30,21.6,47,13.2,13
 2002/12/03,23:45,21.7,48,13.2,13
 2002/12/04, 0:00,20.5,51,13.3,13.1
 2002/12/04, 0:15,21.8,50,13.1,13.1
 2002/12/04, 0:30,21.2,52,13.2,13.1
 2002/12/04, 0:45,20.6,55,13.1,13.1
 2002/12/04, 1:00,20.4,62,13,13.3
 2002/12/04, 1:15,19.9,58,12.9,13.3
 2002/12/04, 1:30,19.9,57,12.8,13.3
 2002/12/04, 1:45,19.7,55,12.7,13.2
 2002/12/04, 2:00,19.4,54,12.6,13.5
 2002/12/04, 2:15,19.1,54,12.4,13.5
 2002/12/04, 2:30,19.1,54,12.4,13.5
 2002/12/04, 2:45,19,53,12.4,13.5
 2002/12/04, 3:00,18.9,53,12.3,13.1
 2002/12/04, 3:15,18.6,53,12.1,13.1
 2002/12/04, 3:30,18.4,53,12,13.1
 2002/12/04, 3:45,18.2,53,11.9,13.1
 2002/12/04, 4:00,18.1,53,11.8,13.2
 2002/12/04, 4:15,17.8,54,11.8,13.2
 2002/12/04, 4:30,17.7,54,11.9,13.2
 2002/12/04, 4:45,17.6,54,11.9,13.2
 2002/12/04, 5:00,17.5,54,11.9,13.2
 2002/12/04, 5:15,17.4,54,11.9,13.2
 2002/12/04, 5:30,17.2,55,12,13.2
 2002/12/04, 5:45,17.3,54,11.8,13.2
 2002/12/04, 6:00,17.1,55,12,13.2
 2002/12/04, 6:15,17,56,12,13.2
 2002/12/04, 6:30,20.3,53,12.1,13.6
 2002/12/04, 6:45,21.3,56,12.1,13.7
 2002/12/04, 7:00,21.7,55,12.1,13.7
 2002/12/04, 7:15,21.5,55,12.2,13.5
 2002/12/04, 7:30,20.1,59,12.1,13.5
 2002/12/04, 7:45,19.8,58,12.1,13.5
 2002/12/04, 8:00,19.4,59,12.3,13.5
 2002/12/04, 8:15,19.3,58,12.3,13.3
 2002/12/04, 8:30,19,58,12.4,13.3
 2002/12/04, 8:45,19,59,11.5,13.2
 2002/12/04, 9:00,19,68,11.5,13.3
 2002/12/04, 9:15,19,68,11.6,13.5
 2002/12/04, 9:30,18.8,63,11.9,13.3
 2002/12/04, 9:45,18.7,61,12,13.3
 2002/12/04,10:00,18.6,62,12.3,13.2
 2002/12/04,10:15,18.7,63,12.8,13.2
 2002/12/04,10:30,18.6,63,12.9,13.2
 2002/12/04,10:45,18.4,65,13.1,13.2
 2002/12/04,11:00,18.2,64,13.2,13.3
 2002/12/04,11:15,18.2,64,13.4,13.3
 2002/12/04,11:30,18.1,64,13.5,13.3
 2002/12/04,11:45,17.9,63,13.8,13.3
 2002/12/04,12:00,17.9,61,14,13.1
 2002/12/04,12:15,17.6,61,14.1,13.1
 2002/12/04,12:30,17.9,64,14.2,13.1
 2002/12/04,12:45,18.2,64,14.4,13.1
 2002/12/04,13:00,18.3,67,14.5,13.1
 2002/12/04,13:15,18.5,65,14.6,13.1
 2002/12/04,13:30,18.3,66,14.6,13.1
 2002/12/04,13:45,18.3,66,14.8,13.1
 2002/12/04,14:00,18.3,66,14.9,13.1
 2002/12/04,14:15,18.3,66,14.9,13.1
 2002/12/04,14:30,18.5,65,14.9,13.1
 2002/12/04,14:45,18.6,66,14.8,13.1
 2002/12/04,15:00,18.4,65,14.8,13.2
 2002/12/04,15:15,18.3,64,14.8,13.2
 2002/12/04,15:30,18.3,65,14.8,13.2
 2002/12/04,15:45,18.7,81,14.8,13.2
 2002/12/04,16:00,18.7,73,14.8,13.2
 2002/12/04,16:15,18.6,72,14.9,13.3
 2002/12/04,16:30,18.7,67,14.9,13.4
 2002/12/04,16:45,18.6,67,14.9,13.4
 2002/12/04,17:00,18.7,66,14.9,13.5
 2002/12/04,17:15,18.7,65,14.9,13.5
 2002/12/04,17:30,18.7,66,15,13.5
 2002/12/04,17:45,19,65,14.9,13.5
 2002/12/04,18:00,18.9,66,14.8,13.5
 2002/12/04,18:15,19.1,73,14.8,13.5
 2002/12/04,18:30,22,58,15,13.5
 2002/12/04,18:45,22.3,58,15,13.5
 2002/12/04,19:00,22.3,62,15,13.5
 2002/12/04,19:15,22.5,61,14.9,13.5
 2002/12/04,19:30,22.4,60,15.1,13.6
 2002/12/04,19:45,22.6,60,15.1,13.6
 2002/12/04,20:00,23.1,63,15.1,13.6
 2002/12/04,20:15,22.8,59,15.3,13.7
 2002/12/04,20:30,22.9,60,15.2,13.4
 2002/12/04,20:45,22.4,61,15.3,13.5
 2002/12/04,21:00,22.3,69,15.4,13.5
 2002/12/04,21:15,22,69,15.5,13.5
 2002/12/04,21:30,22,68,15.4,13.5
 2002/12/04,21:45,21.7,68,15.4,13.5
 2002/12/04,22:00,21.8,68,15.4,13.6
 2002/12/04,22:15,22,69,15.4,13.6
 2002/12/04,22:30,21.7,72,15.4,13.6
 2002/12/04,22:45,21.5,73,15.3,13.6
 2002/12/04,23:00,21.6,72,15.4,13.5
 2002/12/04,23:15,21.4,70,15.5,13.5
 2002/12/04,23:30,21.3,70,15.4,13.5
 2002/12/04,23:45,21.2,66,15.5,13.5
 2002/12/05, 0:00,20.9,66,15.5,13.5
 2002/12/05, 0:15,20.8,66,15.3,13.5
 2002/12/05, 0:30,20.8,65,15.2,13.5
 2002/12/05, 0:45,20.5,66,15.1,13.6
 2002/12/05, 1:00,20.4,65,15,13.6
 2002/12/05, 1:15,20.3,64,14.9,13.6
 2002/12/05, 1:30,20,64,14.8,13.6
 2002/12/05, 1:45,19.9,64,14.7,13.6
 2002/12/05, 2:00,19.8,64,14.6,13.6
 2002/12/05, 2:15,19.6,64,14.7,13.7
 2002/12/05, 2:30,19.6,64,14.6,13.7
 2002/12/05, 2:45,19.4,64,14.6,13.7
 2002/12/05, 3:00,19.3,64,14.6,13.7
 2002/12/05, 3:15,19.3,63,14.5,13.4
 2002/12/05, 3:30,19.1,64,14.5,13.5
 2002/12/05, 3:45,19,64,14.3,13.5
 2002/12/05, 4:00,19,64,14.2,13.5
 2002/12/05, 4:15,18.8,64,14.2,13.5
 2002/12/05, 4:30,18.7,64,14.1,13.6
 2002/12/05, 4:45,18.7,64,14.1,13.6
 2002/12/05, 5:00,18.5,64,14,13.6
 2002/12/05, 5:15,18.5,64,13.9,13.6
 2002/12/05, 5:30,18.5,66,13.9,13.9
 2002/12/05, 5:45,18.2,65,13.8,13.9
 2002/12/05, 6:00,18.2,63,13.7,13.9
 2002/12/05, 6:15,18.2,66,13.6,13.9
 2002/12/05, 6:30,20.9,61,13.6,13.9
 2002/12/05, 6:45,21.8,60,13.6,13.8
 2002/12/05, 7:00,21.9,60,13.5,13.8
 2002/12/05, 7:15,22.4,57,13.6,13.7
 2002/12/05, 7:30,21.2,59,13.6,13.6
 2002/12/05, 7:45,20.5,61,13.6,13.7
 2002/12/05, 8:00,20.2,61,13.7,13.7
 2002/12/05, 8:15,20,61,13.8,13.7
 2002/12/05, 8:30,19.8,63,13.8,13.8
 2002/12/05, 8:45,19.4,59,14.2,13.8
 2002/12/05, 9:00,19.1,58,14.4,13.7
 2002/12/05, 9:15,18.9,64,14.7,13.7
 2002/12/05, 9:30,18.5,62,15.3,13.7
 2002/12/05, 9:45,18.7,58,16.1,13.5
 2002/12/05,10:00,18.3,57,16.8,13.5
 2002/12/05,10:15,18.2,58,16.7,13.6
 2002/12/05,10:30,18.5,58,16.6,13.5
 2002/12/05,10:45,18.5,59,16.7,13.5
 2002/12/05,11:00,18.3,60,16.7,13.6
 2002/12/05,11:15,18.2,60,16.7,13.6
 2002/12/05,11:30,18.5,59,16.7,13.4
 2002/12/05,11:45,18.6,58,16.6,13.4
 2002/12/05,12:00,18.4,59,16.7,13.4
 2002/12/05,12:15,18.5,58,16.6,13.4
 2002/12/05,12:30,18.6,63,16.7,13.5
 2002/12/05,12:45,18.8,60,16.6,13.4
 2002/12/05,13:00,18.7,60,16.7,13.4
 2002/12/05,13:15,18.8,60,16.7,13.4
 2002/12/05,13:30,18.6,60,16.6,13.4
 2002/12/05,13:45,18.7,60,16.7,13.5
 2002/12/05,14:00,18.7,59,16.6,13.3
 2002/12/05,14:15,18.5,60,16.7,13.4
 2002/12/05,14:30,18.7,59,16.8,13.4
 2002/12/05,14:45,18.5,59,16.8,13.4
 2002/12/05,15:00,18.6,59,16.8,13.6
 2002/12/05,15:15,18.5,59,16.8,13.6
 2002/12/05,15:30,18.5,58,16.8,13.6
 2002/12/05,15:45,18.5,58,16.9,13.7
 2002/12/05,16:00,18.4,58,16.9,13.5
 2002/12/05,16:15,18.5,57,16.8,13.5
 2002/12/05,16:30,18.6,58,16.8,13.5
 2002/12/05,16:45,18.7,57,16.8,13.6
 2002/12/05,17:00,18.5,55,16.6,13.6
 2002/12/05,17:15,18.3,56,16.5,13.6
 2002/12/05,17:30,18.5,57,16.3,13.7
 2002/12/05,17:45,19.1,73,16.1,13.5
 2002/12/05,18:00,19.6,72,16,13.5
 2002/12/05,18:15,21.6,60,15.9,13.6
 2002/12/05,18:30,22.1,58,15.8,13.6
 2002/12/05,18:45,21.4,58,15.8,13.7
 2002/12/05,19:00,20,60,15.7,13.9
 2002/12/05,19:15,19.9,58,15.6,13.9
 2002/12/05,19:30,19.6,58,15.6,13.9
 2002/12/05,19:45,19.5,57,15.5,14
 2002/12/05,20:00,19.6,56,15.5,14
 2002/12/05,20:15,21.5,53,15.4,13.6
 2002/12/05,20:30,22.3,51,15.4,13.6
 2002/12/05,20:45,22,54,15.4,13.5
 2002/12/05,21:00,22.2,54,15.4,13.5
 2002/12/05,21:15,22.2,54,15.5,13.5
 2002/12/05,21:30,22,51,15.4,13.6
 2002/12/05,21:45,21.8,52,15.5,13.6
 2002/12/05,22:00,22.6,50,15.4,13.7
 2002/12/05,22:15,21.8,53,15.4,13.7
 2002/12/05,22:30,21.3,55,15.5,13.7
 2002/12/05,22:45,21.3,58,15.5,13.7
 2002/12/05,23:00,21.2,59,15.6,13.8
 2002/12/05,23:15,21,58,15.6,13.8
 2002/12/05,23:30,20.6,58,15.6,13.7
 2002/12/05,23:45,20.5,58,15.5,13.8
 2002/12/06, 0:00,20.4,58,15.4,13.8
 2002/12/06, 0:15,20.1,58,15.4,13.8
 2002/12/06, 0:30,20,58,15.3,13.8
 2002/12/06, 0:45,19.9,57,15.2,13.9
 2002/12/06, 1:00,19.6,58,15.1,13.9
 2002/12/06, 1:15,19.6,57,15.1,13.9
 2002/12/06, 1:30,19.4,57,14.9,13.9
 2002/12/06, 1:45,19.2,57,14.8,13.9
 2002/12/06, 2:00,19.1,56,14.7,14
 2002/12/06, 2:15,19,57,14.6,14
 2002/12/06, 2:30,18.8,57,14.5,14
 2002/12/06, 2:45,18.9,57,14.6,14
 2002/12/06, 3:00,18.6,57,14.6,14
 2002/12/06, 3:15,18.5,58,14.4,14.1
 2002/12/06, 3:30,18.6,57,14.3,14.1
 2002/12/06, 3:45,18.6,57,14.4,14.1
 2002/12/06, 4:00,18.3,58,14.2,14.1
 2002/12/06, 4:15,18.2,58,14.1,14.1
 2002/12/06, 4:30,18.2,58,14.1,14.1
 2002/12/06, 4:45,18.3,57,14.1,14.2
 2002/12/06, 5:00,18.2,57,13.9,14.2
 2002/12/06, 5:15,18.1,57,13.8,14.2
 2002/12/06, 5:30,18,57,13.8,14.2
 2002/12/06, 5:45,17.7,57,13.7,13.5
 2002/12/06, 6:00,17.6,56,13.8,13.7
 2002/12/06, 6:15,20.6,51,13.8,13.7
 2002/12/06, 6:30,21.8,49,13.7,13.7
 2002/12/06, 6:45,21.6,50,13.7,14.1
 2002/12/06, 7:00,21.6,51,13.6,13.8
 2002/12/06, 7:15,21.7,51,13.6,13.9
 2002/12/06, 7:30,21.6,51,13.6,13.9
 2002/12/06, 7:45,21.8,50,13.6,14
 2002/12/06, 8:00,21.8,50,13.6,14
 2002/12/06, 8:15,20.2,59,13.6,13.8
 2002/12/06, 8:30,20,56,13.6,13.9
 2002/12/06, 8:45,19.4,50,13.7,13.7
 2002/12/06, 9:00,18.6,42,13.6,13.7
 2002/12/06, 9:15,18.7,39,13.8,13.7
 2002/12/06, 9:30,18.3,40,14,13.8
 2002/12/06, 9:45,18.3,45,14.1,13.6
 2002/12/06,10:00,18.1,47,14.2,13.7
 2002/12/06,10:15,17.8,48,14.1,13.7
 2002/12/06,10:30,17.8,49,14.1,13.7
 2002/12/06,10:45,17.5,49,14.1,13.7
 2002/12/06,11:00,17.5,49,14,13.7
 2002/12/06,11:15,17.3,50,13.9,13.7
 2002/12/06,11:30,17.2,50,13.8,13.7
 2002/12/06,11:45,17.1,50,13.7,13.7
 2002/12/06,12:00,16.9,50,13.8,13.7
 2002/12/06,12:15,16.9,50,13.8,13.8
 2002/12/06,12:30,18.3,57,13.8,13.8
 2002/12/06,12:45,17.7,57,13.8,13.8
 2002/12/06,13:00,17.3,54,13.7,13.8
 2002/12/06,13:15,17.3,53,13.7,13.8
 2002/12/06,13:30,17.1,52,13.6,13.8
 2002/12/06,13:45,16.9,53,13.6,13.8
 2002/12/06,14:00,16.8,52,13.5,13.8
 2002/12/06,14:15,16.6,52,13.4,13.8
 2002/12/06,14:30,16.6,52,13.3,13.8
 2002/12/06,14:45,16.4,51,13.2,13.8
 2002/12/06,15:00,16.3,50,13.2,13.8
 2002/12/06,15:15,16.2,49,13.1,13.8
 2002/12/06,15:30,16.2,50,13.1,13.8
 2002/12/06,15:45,16.1,51,13,13.5
 2002/12/06,16:00,16,51,12.9,13.6
 2002/12/06,16:15,16,52,12.7,13.6
 2002/12/06,16:30,15.8,51,12.7,13.6
 2002/12/06,16:45,15.8,51,12.5,13.6
 2002/12/06,17:00,15.7,51,12.3,13.6
 2002/12/06,17:15,15.6,51,12.2,13.6
 2002/12/06,17:30,15.4,51,12.1,13.6
 2002/12/06,17:45,20.2,43,11.9,13.6
 2002/12/06,18:00,21.4,43,11.8,13.6
 2002/12/06,18:15,20.9,44,11.7,13.6
 2002/12/06,18:30,21.4,39,11.7,13.6
 2002/12/06,18:45,21.4,44,11.7,13.6
 2002/12/06,19:00,21.1,47,11.6,13.6
 2002/12/06,19:15,21.3,49,11.5,13.3
 2002/12/06,19:30,21.6,48,11.5,13.3
 2002/12/06,19:45,21.5,48,11.5,13.3
 2002/12/06,20:00,21.9,49,11.5,13.5
 2002/12/06,20:15,21.7,50,11.5,13.5
 2002/12/06,20:30,21.6,51,11.4,13.5
 2002/12/06,20:45,20.7,53,11.3,13.6
 2002/12/06,21:00,21.9,51,11.4,13.6
 2002/12/06,21:15,22.1,52,11.5,13.6
 2002/12/06,21:30,22.6,47,11.5,13.6
 2002/12/06,21:45,22.4,49,11.5,13.6
 2002/12/06,22:00,22.3,45,11.5,13.6
 2002/12/06,22:15,21,51,11.5,13.6
 2002/12/06,22:30,21.3,63,11.3,13.6
 2002/12/06,22:45,20.9,60,11.3,13.6
 2002/12/06,23:00,20.7,60,11.3,13.9
 2002/12/06,23:15,21.9,60,11.3,13.9
 2002/12/06,23:30,20.6,59,11.3,13.8
 2002/12/06,23:45,20.2,58,11.3,13.6
 2002/12/07, 0:00,19.8,57,11.3,13.6
 2002/12/07, 0:15,19.4,54,11.3,13.6
 2002/12/07, 0:30,19.3,54,11.3,13.4
 2002/12/07, 0:45,18.9,54,11.3,13.4
 2002/12/07, 1:00,18.7,53,11.3,13.3
 2002/12/07, 1:15,18.5,53,11.2,13.3
 2002/12/07, 1:30,18.2,53,11.1,13.3
 2002/12/07, 1:45,18.1,52,11,13.3
 2002/12/07, 2:00,17.8,53,11,13.3
 2002/12/07, 2:15,17.7,53,10.9,13.3
 2002/12/07, 2:30,17.4,53,10.9,13.3
 2002/12/07, 2:45,17.2,53,10.9,13.3
 2002/12/07, 3:00,17.1,52,10.9,13.1
 2002/12/07, 3:15,16.9,53,10.8,13.1
 2002/12/07, 3:30,16.9,53,10.7,13.1
 2002/12/07, 3:45,16.7,53,10.6,13.1
 2002/12/07, 4:00,16.5,53,10.5,13.1
 2002/12/07, 4:15,16.4,53,10.5,13.1
 2002/12/07, 4:30,16.2,54,10.5,13
 2002/12/07, 4:45,16.3,53,10.4,13
 2002/12/07, 5:00,16,54,10.4,13
 2002/12/07, 5:15,16,54,10.4,13
 2002/12/07, 5:30,15.8,54,10.4,13
 2002/12/07, 5:45,15.8,54,10.4,13
 2002/12/07, 6:00,15.6,52,10.4,12.9
 2002/12/07, 6:15,15.2,50,10.4,13.4
 2002/12/07, 6:30,18.6,43,10.4,13.4
 2002/12/07, 6:45,21,46,10.4,13.3
 2002/12/07, 7:00,21.8,48,10.5,13.9
 2002/12/07, 7:15,21.8,51,10.6,13.9
 2002/12/07, 7:30,21.9,49,10.6,14
 2002/12/07, 7:45,22.1,47,10.7,13.6
 2002/12/07, 8:00,21.8,47,10.8,13.6
 2002/12/07, 8:15,22,48,10.7,13.4
 2002/12/07, 8:30,21.6,49,10.7,13.4
 2002/12/07, 8:45,22.2,47,10.8,13.3
 2002/12/07, 9:00,20.7,51,10.8,13.2
 2002/12/07, 9:15,19.9,43,10.9,13.2
 2002/12/07, 9:30,20.5,45,10.9,13.2
 2002/12/07, 9:45,19.8,60,10.9,13.7
 2002/12/07,10:00,22.1,47,11,13.7
 2002/12/07,10:15,20.3,52,11.1,13.7
 2002/12/07,10:30,19.4,52,11.1,13.7
 2002/12/07,10:45,18.9,55,11.1,13.2
 2002/12/07,11:00,18.5,57,11,13.2
 2002/12/07,11:15,18.4,58,10.9,13.2
 2002/12/07,11:30,17.8,52,11,13.1
 2002/12/07,11:45,17.7,56,10.9,13.1
 2002/12/07,12:00,17.5,58,10.8,13.1
 2002/12/07,12:15,17.6,59,10.6,13.1
 2002/12/07,12:30,17.5,61,10.6,13.1
 2002/12/07,12:45,17.4,62,10.6,13.1
 2002/12/07,13:00,17.2,62,10.6,12.9
 2002/12/07,13:15,17.1,63,10.5,12.9
 2002/12/07,13:30,16.9,64,10.5,13
 2002/12/07,13:45,16.9,64,10.5,13
 2002/12/07,14:00,16.7,65,10.5,13
 2002/12/07,14:15,16.6,65,10.5,13
 2002/12/07,14:30,16.5,65,10.5,13
 2002/12/07,14:45,16.4,65,10.5,12.9
 2002/12/07,15:00,16,57,10.6,12.9
 2002/12/07,15:15,15.8,55,10.6,12.9
 2002/12/07,15:30,15.5,56,10.7,12.9
 2002/12/07,15:45,15.3,56,10.6,12.9
 2002/12/07,16:00,15.4,56,10.6,12.9
 2002/12/07,16:15,15.1,57,10.6,12.9
 2002/12/07,16:30,15.1,57,10.6,13.4
 2002/12/07,16:45,14.9,57,10.5,13.3
 2002/12/07,17:00,14.7,58,10.4,13.3
 2002/12/07,17:15,14.6,60,10.4,13.2
 2002/12/07,17:30,20.2,51,10.4,13.2
 2002/12/07,17:45,22,53,10.3,13.2
 2002/12/07,18:00,21.7,56,10.3,13.2
 2002/12/07,18:15,21.7,58,10.4,13.2
 2002/12/07,18:30,21.5,58,10.5,13.2
 2002/12/07,18:45,21.2,62,10.5,13.6
 2002/12/07,19:00,22,51,10.6,13.6
 2002/12/07,19:15,21.3,56,10.7,13.2
 2002/12/07,19:30,22,60,10.7,13.5
 2002/12/07,19:45,21.5,69,10.7,13.5